Tracking 27420 objects as of 28-May-2023
HD Live streaming from Space Station
objects crossing your sky now

STARLINK-1291

Track STARLINK-1291 now!
10-day predictions
STARLINK-1291 is classified as:


NORAD ID: 45393
Int'l Code: 2020-019AK
Perigee: 554.0 km
Apogee: 554.8 km
Inclination: 53.1 °
Period: 95.6 minutes
Semi major axis: 6925 km
RCS: Unknown
Launch date: March 18, 2020
Source: United States (US)
Launch site: AIR FORCE EASTERN TEST RANGE (AFETR)
Your satellite tracking list
Your tracking list is empty




NASA's NSSDC Master Catalog

Two Line Element Set (TLE):
1 45393U 20019AK  23147.96440526  .00000347  00000-0  42213-4 0  9999
2 45393  53.0556  30.8744 0000610  83.2241 276.8818 15.06385580176525
Source of the keplerian elements: AFSPC